When you browse on this site, cookies collect data to enhance your experience and personalize the content and advertising you see.
Visit our Privacy Policy to learn more. By continuing to use the site, you agree to this use of cookies and data.
  • In Latvia
  • List of Countries
  • For 7 days
  • Water Temperature
  • Weather Map
  • Weather Widgets
  • user-avatar
    Login

    Hourly Weather Mokhotlong

    Today, 18 September, Wednesday

    Time Temperature Precipitation Wind Pressure Humidity
    00:00 +12°C° 0 mm 2 mps 586 mmHg 26%
    01:00 +12°C° 0 mm 2 mps 586 mmHg 27%
    02:00 +11°C° 0 mm 1 mps 586 mmHg 31%
    03:00 +11°C° 0 mm 1 mps 586 mmHg 35%
    04:00 +10°C° 0 mm 1 mps 586 mmHg 40%
    05:00 +10°C° 0 mm 1 mps 586 mmHg 44%
    06:00 +13°C° 0 mm 2 mps 588 mmHg 36%
    07:00 +16°C° 0 mm 2 mps 589 mmHg 29%
    08:00 +20°C° 0 mm 3 mps 591 mmHg 22%
    09:00 +21°C° 0 mm 4 mps 592 mmHg 19%
    10:00 +23°C° 0 mm 5 mps 592 mmHg 16%
    11:00 +24°C° 0 mm 6 mps 592 mmHg 13%
    12:00 +26°C° 0 mm 6 mps 592 mmHg 12%
    13:00 +26°C° 0 mm 6 mps 592 mmHg 12%
    14:00 +26°C° 0 mm 7 mps 592 mmHg 12%
    15:00 +26°C° 0 mm 6 mps 592 mmHg 13%
    16:00 +24°C° 0 mm 6 mps 592 mmHg 14%
    17:00 +23°C° 0 mm 5 mps 592 mmHg 15%
    18:00 +20°C° 0 mm 4 mps 591 mmHg 19%
    19:00 +17°C° 0 mm 2 mps 590 mmHg 22%
    20:00 +14°C° 0 mm 1 mps 589 mmHg 26%
    21:00 +13°C° 0 mm 1 mps 589 mmHg 32%
    22:00 +13°C° 0 mm 1 mps 589 mmHg 37%
    23:00 +12°C° 0 mm 1 mps 589 mmHg 42%

    Tomorrow, 19 September, Thursday

    Time Temperature Precipitation Wind Pressure Humidity
    00:00 +11°C° 0 mm 1 mps 589 mmHg 40%
    01:00 +11°C° 0 mm 1 mps 588 mmHg 37%
    02:00 +11°C° 0 mm 1 mps 588 mmHg 35%
    03:00 +11°C° 0 mm 1 mps 588 mmHg 38%
    04:00 +10°C° 0 mm 1 mps 588 mmHg 42%
    05:00 +10°C° 0 mm 1 mps 588 mmHg 45%
    06:00 +13°C° 0 mm 1 mps 590 mmHg 36%
    07:00 +15°C° 0 mm 0 mps 591 mmHg 27%
    08:00 +18°C° 0 mm 0 mps 593 mmHg 18%
    09:00 +21°C° 0 mm 1 mps 593 mmHg 17%
    10:00 +22°C° 0 mm 1 mps 594 mmHg 16%
    11:00 +24°C° 0 mm 2 mps 594 mmHg 15%
    12:00 +24°C° 0 mm 2 mps 593 mmHg 15%
    13:00 +25°C° 0 mm 2 mps 593 mmHg 14%
    14:00 +26°C° 0 mm 2 mps 592 mmHg 14%
    15:00 +25°C° 0 mm 3 mps 592 mmHg 17%
    16:00 +24°C° 0 mm 3 mps 592 mmHg 21%
    17:00 +22°C° 0 mm 3 mps 591 mmHg 24%
    18:00 +19°C° 0 mm 3 mps 590 mmHg 33%
    19:00 +17°C° 0 mm 2 mps 589 mmHg 42%
    20:00 +14°C° 0 mm 2 mps 588 mmHg 50%
    21:00 +13°C° 0 mm 2 mps 588 mmHg 52%
    22:00 +13°C° 0 mm 2 mps 588 mmHg 54%
    23:00 +13°C° 0 mm 1 mps 588 mmHg 56%

    Day after tomorrow, 20 September, Friday

    Time Temperature Precipitation Wind Pressure Humidity
    00:00 +12°C° 0 mm 1 mps 588 mmHg 55%
    01:00 +12°C° 0 mm 1 mps 588 mmHg 54%
    02:00 +12°C° 0 mm 1 mps 587 mmHg 52%
    03:00 +11°C° 0 mm 1 mps 587 mmHg 56%
    04:00 +11°C° 0 mm 1 mps 587 mmHg 59%
    05:00 +11°C° 0 mm 1 mps 587 mmHg 63%
    06:00 +13°C° 0 mm 2 mps 588 mmHg 53%
    07:00 +16°C° 0 mm 2 mps 590 mmHg 43%
    08:00 +18°C° 0 mm 2 mps 591 mmHg 33%
    09:00 +20°C° 0 mm 3 mps 591 mmHg 29%
    10:00 +22°C° 0 mm 3 mps 591 mmHg 26%
    11:00 +24°C° 0 mm 3 mps 592 mmHg 22%
    12:00 +25°C° 0 mm 2 mps 591 mmHg 21%
    13:00 +25°C° 0 mm 2 mps 590 mmHg 19%
    14:00 +26°C° 0 mm 2 mps 590 mmHg 18%
    15:00 +25°C° 0 mm 2 mps 590 mmHg 19%
    16:00 +25°C° 0 mm 2 mps 589 mmHg 20%
    17:00 +24°C° 0 mm 3 mps 589 mmHg 21%
    18:00 +21°C° 0 mm 2 mps 588 mmHg 27%
    19:00 +19°C° 0 mm 2 mps 588 mmHg 32%
    20:00 +17°C° 0 mm 2 mps 587 mmHg 37%
    21:00 +16°C° 0 mm 1 mps 587 mmHg 37%
    22:00 +16°C° 0 mm 1 mps 587 mmHg 37%
    23:00 +16°C° 0 mm 1 mps 587 mmHg 37%

    21 September, Saturday

    Time Temperature Precipitation Wind Pressure Humidity
    00:00 +15°C° 0 mm 1 mps 587 mmHg 39%
    01:00 +14°C° 0 mm 1 mps 586 mmHg 40%
    02:00 +13°C° 0 mm 2 mps 585 mmHg 42%
    03:00 +13°C° 0 mm 1 mps 585 mmHg 44%
    04:00 +12°C° 0 mm 1 mps 585 mmHg 46%
    05:00 +11°C° 0 mm 1 mps 585 mmHg 48%
    06:00 +14°C° 0 mm 1 mps 586 mmHg 42%
    07:00 +16°C° 0 mm 2 mps 587 mmHg 36%
    08:00 +18°C° 0 mm 2 mps 588 mmHg 30%
    09:00 +20°C° 0 mm 3 mps 589 mmHg 27%
    10:00 +21°C° 0 mm 4 mps 589 mmHg 24%
    11:00 +23°C° 0 mm 5 mps 589 mmHg 21%
    12:00 +24°C° 0 mm 6 mps 589 mmHg 20%
    13:00 +24°C° 0 mm 6 mps 588 mmHg 19%
    14:00 +24°C° 0 mm 7 mps 587 mmHg 17%
    15:00 +24°C° 0 mm 7 mps 587 mmHg 18%
    16:00 +23°C° 0 mm 6 mps 586 mmHg 19%
    17:00 +22°C° 0 mm 6 mps 586 mmHg 20%
    18:00 +20°C° 0 mm 5 mps 585 mmHg 24%
    19:00 +18°C° 0 mm 4 mps 585 mmHg 28%
    20:00 +16°C° 0 mm 3 mps 584 mmHg 32%
    21:00 +16°C° 0 mm 3 mps 584 mmHg 33%
    22:00 +14°C° 0 mm 3 mps 584 mmHg 35%
    23:00 +13°C° 0 mm 3 mps 583 mmHg 37%

    22 September, Sunday

    Time Temperature Precipitation Wind Pressure Humidity
    00:00 +13°C° 0 mm 4 mps 583 mmHg 36%
    01:00 +12°C° 0 mm 4 mps 582 mmHg 35%
    02:00 +12°C° 0 mm 4 mps 582 mmHg 34%
    03:00 +11°C° 0 mm 4 mps 582 mmHg 36%
    04:00 +11°C° 0 mm 3 mps 582 mmHg 38%
    05:00 +10°C° 0 mm 3 mps 581 mmHg 40%
    06:00 +13°C° 0 mm 5 mps 583 mmHg 35%
    07:00 +15°C° 0 mm 6 mps 584 mmHg 29%
    08:00 +17°C° 0 mm 7 mps 585 mmHg 24%
    09:00 +18°C° 0 mm 9 mps 585 mmHg 23%
    10:00 +21°C° 0 mm 10 mps 585 mmHg 21%
    11:00 +22°C° 0 mm 11 mps 585 mmHg 19%
    12:00 +22°C° 0 mm 12 mps 585 mmHg 19%
    13:00 +22°C° 0 mm 12 mps 584 mmHg 19%
    14:00 +23°C° 0 mm 13 mps 584 mmHg 19%
    15:00 +21°C° 0 mm 11 mps 584 mmHg 23%
    16:00 +19°C° 0 mm 10 mps 583 mmHg 28%
    17:00 +17°C° 0 mm 8 mps 582 mmHg 32%
    18:00 +16°C° 0.1 mm 7 mps 583 mmHg 36%
    19:00 +14°C° 0.1 mm 6 mps 583 mmHg 41%
    20:00 +13°C° 0.1 mm 4 mps 584 mmHg 45%
    21:00 +11°C° 0.1 mm 3 mps 583 mmHg 54%
    22:00 +9°C° 0.1 mm 2 mps 582 mmHg 62%
    23:00 +8°C° 0.1 mm 1 mps 581 mmHg 71%

    23 September, Monday

    Time Temperature Precipitation Wind Pressure Humidity
    00:00 +7°C° 0.1 mm 1 mps 581 mmHg 68%
    01:00 +6°C° 0.1 mm 2 mps 581 mmHg 65%
    02:00 +5°C° 0.1 mm 2 mps 581 mmHg 62%
    03:00 +4°C° 0.2 mm 2 mps 581 mmHg 62%
    04:00 +2°C° 0.2 mm 2 mps 580 mmHg 62%
    05:00 +1°C° 0.2 mm 2 mps 580 mmHg 61%
    06:00 +2°C° 0.2 mm 2 mps 581 mmHg 56%
    07:00 +4°C° 0.2 mm 2 mps 582 mmHg 50%
    08:00 +5°C° 0.2 mm 2 mps 583 mmHg 45%
    09:00 +5°C° 0 mm 3 mps 584 mmHg 42%
    10:00 +7°C° 0 mm 4 mps 584 mmHg 39%
    11:00 +8°C° 0 mm 5 mps 585 mmHg 35%
    12:00 +9°C° 0 mm 5 mps 585 mmHg 34%
    13:00 +11°C° 0 mm 4 mps 585 mmHg 33%
    14:00 +12°C° 0 mm 4 mps 585 mmHg 32%
    15:00 +11°C° 0 mm 4 mps 585 mmHg 35%
    16:00 +11°C° 0 mm 3 mps 585 mmHg 38%
    17:00 +10°C° 0 mm 3 mps 584 mmHg 41%
    18:00 +8°C° 0 mm 2 mps 584 mmHg 50%
    19:00 +6°C° 0 mm 2 mps 584 mmHg 59%
    20:00 +5°C° 0 mm 1 mps 584 mmHg 68%
    21:00 +5°C° 0 mm 1 mps 583 mmHg 72%
    22:00 +4°C° 0 mm 1 mps 583 mmHg 76%
    23:00 +3°C° 0 mm 1 mps 583 mmHg 80%
    Show more